TimeMST,TemperatureF,Dew PointF,Humidity,Sea Level PressureIn,VisibilityMPH,Wind Direction,Wind SpeedMPH,Gust SpeedMPH,PrecipitationIn,Events,Conditions,WindDirDegrees,DateUTC
12:52 AM,-0.0,-4.0,83,30.21,9.0,Variable,4.6,-,N/A,,Clear,0,2014-01-27 07:52:00
1:52 AM,1.0,-2.9,83,30.17,9.0,ENE,8.1,-,N/A,,Clear,60,2014-01-27 08:52:00
2:52 AM,3.9,-0.0,84,30.12,9.0,North,4.6,-,N/A,,Clear,360,2014-01-27 09:52:00
3:52 AM,-2.0,-5.1,87,30.16,10.0,West,6.9,-,N/A,,Clear,280,2014-01-27 10:52:00
4:28 AM,-2.0,-5.1,87,29.99,9.0,WNW,4.6,-,N/A,,Scattered Clouds,300,2014-01-27 11:28:00
4:36 AM,-0.9,-2.9,91,29.99,2.0,WNW,5.8,-,N/A,,Mostly Cloudy,290,2014-01-27 11:36:00
4:41 AM,-0.9,-2.9,91,29.99,0.8,NW,5.8,-,N/A,,Mist,310,2014-01-27 11:41:00
4:52 AM,-0.9,-2.9,91,30.18,1.8,NW,3.5,-,N/A,,Overcast,320,2014-01-27 11:52:00
4:55 AM,-0.9,-4.0,87,29.99,3.0,NW,4.6,-,N/A,,Overcast,320,2014-01-27 11:55:00
5:52 AM,-2.9,-7.1,82,30.24,7.0,SE,3.5,-,N/A,,Overcast,130,2014-01-27 12:52:00
6:52 AM,-6.0,-9.0,87,30.31,7.0,Calm,Calm,-,N/A,,Overcast,0,2014-01-27 13:52:00
7:05 AM,-5.1,-9.0,83,29.99,2.0,Calm,Calm,-,N/A,,Overcast,0,2014-01-27 14:05:00
7:16 AM,-5.1,-9.0,83,29.99,0.8,Calm,Calm,-,N/A,,Mist,0,2014-01-27 14:16:00
7:52 AM,-2.0,-5.1,87,30.30,0.2,Calm,Calm,-,N/A,Fog,Light Freezing Fog,0,2014-01-27 14:52:00
8:20 AM,1.9,-2.0,83,29.99,2.0,Calm,Calm,-,N/A,,Overcast,0,2014-01-27 15:20:00
8:29 AM,5.0,-0.0,80,29.99,7.0,Calm,Calm,-,N/A,,Mostly Cloudy,0,2014-01-27 15:29:00
8:36 AM,6.1,1.0,80,30.00,8.0,Calm,Calm,-,N/A,,Scattered Clouds,0,2014-01-27 15:36:00
8:52 AM,9.0,6.1,88,30.27,7.0,Calm,Calm,-,N/A,,Clear,0,2014-01-27 15:52:00
9:05 AM,12.0,8.1,84,30.00,7.0,North,3.5,-,N/A,,Partly Cloudy,350,2014-01-27 16:05:00
9:52 AM,14.0,10.9,88,30.22,6.0,Calm,Calm,-,N/A,,Clear,0,2014-01-27 16:52:00
10:52 AM,18.0,10.9,74,30.20,8.0,Calm,Calm,-,N/A,,Clear,0,2014-01-27 17:52:00
11:52 AM,21.9,12.9,68,30.14,10.0,East,3.5,-,N/A,,Clear,90,2014-01-27 18:52:00
12:52 PM,28.9,15.1,56,30.06,10.0,Calm,Calm,-,N/A,,Clear,0,2014-01-27 19:52:00
1:52 PM,30.9,16.0,54,30.01,10.0,North,5.8,-,N/A,,Partly Cloudy,10,2014-01-27 20:52:00
2:52 PM,34.0,18.0,52,29.96,10.0,Calm,Calm,-,N/A,,Partly Cloudy,0,2014-01-27 21:52:00
3:52 PM,28.9,18.0,64,30.01,10.0,NNW,8.1,-,N/A,,Mostly Cloudy,330,2014-01-27 22:52:00
4:52 PM,28.0,18.0,66,30.00,10.0,WSW,3.5,-,N/A,,Mostly Cloudy,250,2014-01-27 23:52:00
5:52 PM,24.1,17.1,75,30.03,10.0,Calm,Calm,-,N/A,,Overcast,0,2014-01-28 00:52:00
6:52 PM,21.9,17.1,82,30.07,10.0,NE,5.8,-,N/A,,Overcast,40,2014-01-28 01:52:00
7:52 PM,17.1,12.0,81,30.07,10.0,Calm,Calm,-,N/A,,Clear,0,2014-01-28 02:52:00
8:52 PM,12.0,9.0,88,30.04,10.0,NW,3.5,-,N/A,,Clear,310,2014-01-28 03:52:00
9:52 PM,8.1,6.1,92,30.06,7.0,NW,3.5,-,N/A,,Clear,310,2014-01-28 04:52:00
10:52 PM,8.1,5.0,87,30.07,8.0,Calm,Calm,-,N/A,,Mostly Cloudy,0,2014-01-28 05:52:00
11:52 PM,8.1,3.9,83,30.06,10.0,SSW,4.6,-,N/A,,Clear,210,2014-01-28 06:52:00